TimeEST,TemperatureF,Dew PointF,Humidity,Sea Level PressureIn,VisibilityMPH,Wind Direction,Wind SpeedMPH,Gust SpeedMPH,PrecipitationIn,Events,Conditions,WindDirDegrees,DateUTC
12:56 AM,37.9,34.0,86,30.03,10.0,SW,6.9,-,N/A,,Clear,220,2013-02-15 05:56:00
1:56 AM,39.0,32.0,76,30.04,10.0,SW,4.6,-,N/A,,Clear,230,2013-02-15 06:56:00
2:56 AM,39.0,33.1,79,30.04,10.0,SSW,8.1,-,N/A,,Clear,210,2013-02-15 07:56:00
3:56 AM,37.0,30.9,79,30.02,10.0,Calm,Calm,-,N/A,,Clear,0,2013-02-15 08:56:00
4:56 AM,32.0,28.9,88,30.03,10.0,Calm,Calm,-,N/A,,Clear,0,2013-02-15 09:56:00
5:56 AM,30.9,28.0,89,30.04,10.0,WNW,3.5,-,N/A,,Clear,290,2013-02-15 10:56:00
6:56 AM,30.9,27.0,85,30.05,10.0,WNW,3.5,-,N/A,,Clear,300,2013-02-15 11:56:00
7:56 AM,33.1,28.9,85,30.06,10.0,WNW,3.5,-,N/A,,Clear,290,2013-02-15 12:56:00
8:56 AM,37.9,33.1,83,30.07,10.0,South,3.5,-,N/A,,Clear,190,2013-02-15 13:56:00
9:56 AM,41.0,33.1,73,30.07,10.0,South,5.8,-,N/A,,Clear,190,2013-02-15 14:56:00
10:56 AM,44.1,33.1,65,30.05,10.0,South,4.6,-,N/A,,Clear,190,2013-02-15 15:56:00
11:56 AM,46.9,34.0,61,30.02,10.0,Calm,Calm,-,N/A,,Clear,0,2013-02-15 16:56:00
12:56 PM,52.0,37.9,59,29.98,10.0,SSE,9.2,-,N/A,,Partly Cloudy,160,2013-02-15 17:56:00
1:56 PM,54.0,35.1,49,29.95,10.0,SSE,8.1,-,N/A,,Partly Cloudy,160,2013-02-15 18:56:00
2:56 PM,57.9,30.9,36,29.94,10.0,SW,8.1,-,N/A,,Scattered Clouds,220,2013-02-15 19:56:00
3:56 PM,55.9,32.0,40,29.92,10.0,SSW,5.8,-,N/A,,Scattered Clouds,210,2013-02-15 20:56:00
4:56 PM,48.9,35.1,59,29.90,10.0,South,9.2,-,N/A,,Clear,190,2013-02-15 21:56:00
5:56 PM,48.9,35.1,59,29.90,10.0,SSW,3.5,-,N/A,,Mostly Cloudy,200,2013-02-15 22:56:00
6:30 PM,51.8,35.6,54,29.92,10.0,North,11.5,-,N/A,,Overcast,360,2013-02-15 23:30:00
6:56 PM,48.0,37.0,66,29.95,10.0,North,17.3,21.9,N/A,,Overcast,10,2013-02-15 23:56:00
7:56 PM,45.0,34.0,65,30.00,10.0,North,16.1,28.8,N/A,,Overcast,360,2013-02-16 00:56:00
8:56 PM,43.0,35.1,74,30.03,10.0,North,10.4,-,N/A,,Overcast,10,2013-02-16 01:56:00
9:35 PM,41.0,33.8,76,30.04,10.0,North,15.0,23.0,N/A,,Overcast,360,2013-02-16 02:35:00
9:56 PM,39.9,34.0,79,30.06,10.0,NNW,13.8,20.7,0.01,Rain,Light Rain,340,2013-02-16 02:56:00
10:05 PM,39.2,33.8,81,30.05,6.0,North,15.0,24.2,0.01,Rain,Light Rain,360,2013-02-16 03:05:00
10:37 PM,37.4,33.8,87,30.06,9.0,NNE,10.4,-,0.07,Rain,Light Rain,20,2013-02-16 03:37:00
10:56 PM,37.0,33.1,86,30.07,8.0,North,9.2,-,0.10,Rain,Light Rain,10,2013-02-16 03:56:00
11:45 PM,37.4,33.8,87,30.04,10.0,ENE,6.9,-,0.07,Rain,Light Rain,60,2013-02-16 04:45:00
11:56 PM,37.0,33.1,86,30.04,10.0,ENE,8.1,-,0.07,Rain,Light Rain,60,2013-02-16 04:56:00